Printer-friendly version

IAU Minor Planet Center

Minor Planet Center

MPEC 2003-C35 : 2003 BH84

The following Minor Planet Electronic Circular may be linked-to from your own Web pages, but must not otherwise be redistributed electronically.


Read MPEC 2003-C34 Read MPEC 2003-C36


M.P.E.C. 2003-C35                                Issued 2003 Feb. 6, 14:13 UT

     The Minor Planet Electronic Circulars contain information on unusual
         minor planets and routine data on comets.  They are published
   on behalf of Commission 20 of the International Astronomical Union by the
          Minor Planet Center, Smithsonian Astrophysical Observatory,
                          Cambridge, MA 02138, U.S.A.

             Prepared using the Tamkin Foundation Computer Network

                              MPC@CFA.HARVARD.EDU
          URL http://cfa-www.harvard.edu/iau/mpc.html  ISSN 1523-6714

                                   2003 BH84

Observations:
     K03B84H* C2003 01 25.09471 07 42 34.02 +11 43 13.4          21.2 R      809
     K03B84H  C2003 01 25.10464 07 42 33.17 +11 43 14.1          20.5 R      809
     K03B84H  C2003 01 25.11416 07 42 32.35 +11 43 14.7          20.3 R      809
     K03B84H  C2003 01 30.18138 07 35 39.31 +11 48 18.0          21.2 R      809
     K03B84H  C2003 01 30.18381 07 35 39.10 +11 48 18.2          21.0 R      809
     K03B84H  C2003 01 30.18624 07 35 38.91 +11 48 18.4          21.3 R      809
     K03B84H  C2003 02 06.07308 07 27 09.85 +11 56 13.6          21.6 R      809
     K03B84H  C2003 02 06.07551 07 27 09.69 +11 56 13.8          21.6 R      809
     K03B84H  C2003 02 06.07793 07 27 09.52 +11 56 13.9          21.8 R      809
     K03B84H fC2003 02 06.08035 07 27 09.34 +11 56 14.2          22.0 R      809

Observer details:
809 European Southern Observatory, La Silla.  Observers A. Boattini,
    O. R. Hainaut.  Measurers A. Boattini, O. R. Hainaut, H. Scholl, G. Hahn,
    M. Carpino.  3.6-m New Technology Telescope + EMMI-RILD system.

Orbital elements:
2003 BH84
Epoch 2003 Jan. 21.0 TT = JDT 2452660.5                 MPC
M 106.14538              (2000.0)            P               Q
n   0.36185854     Peri.   35.12822     +0.70450969     +0.59751425
a   1.9503393      Node   283.43724     -0.70718091     +0.54567617
e   0.7128326      Incl.   23.18603     -0.05967637     +0.58754935
P   2.72           H   17.2           G   0.15
From 10 observations 2003 Jan. 25-Feb. 6.

Ephemeris:
2003 BH84                a,e,i = 1.95, 0.71, 23                  q = 0.5601
Date    TT    R. A. (2000) Decl.     Delta      r     Elong.  Phase     V
2003 01 31    07 34.59   +11 49.1    2.027    2.974   160.3     6.4    21.6
2003 02 10    07 22.86   +12 01.0    2.127    3.012   148.3     9.9    21.9
2003 02 20    07 13.88   +12 13.7    2.253    3.047   136.5    12.9    22.1
2003 03 02    07 07.86   +12 26.0    2.401    3.081   125.2    15.2    22.4
2003 03 12    07 04.74   +12 36.7    2.563    3.112   114.7    16.9    22.6
2003 03 22    07 04.26   +12 44.9    2.736    3.141   104.8    17.9    22.8

Brian G. Marsden             (C) Copyright 2003 MPC           M.P.E.C. 2003-C35

Read MPEC 2003-C34 Read MPEC 2003-C36


Our Web policy. Index to the CBAT/MPC/ICQ pages.


Valid HTML 4.01!